Weather History for Williamsport, PA

Change the Weather History Date:

Sunday, June 8, 2014

  Actual Average Record
Temperature  
Mean Temperature 69 °F 67 °F  
Max Temperature 83 °F 78 °F 98 °F (1933)
Min Temperature 54 °F 56 °F 38 °F (1932)
Degree Days  
Heating Degree Days 0 2  
Month to date heating degree days 3 20  
Since 1 June heating degree days 3 20  
Since 1 July heating degree days 6462 5978  
Cooling Degree Days 4 4  
Month to date cooling degree days 25 25  
Year to date cooling degree days 77 68  
Since 1 June cooling degree days 25 25  
Growing Degree Days 18 (Base 50)    
Moisture  
Dew Point 58 °F    
Average Humidity 69    
Maximum Humidity 93    
Minimum Humidity 45    
Precipitation  
Precipitation 0.08 in 0.13 in 1.50 in (1978)
Month to date precipitation 1.05 1.01  
Year to date precipitation 15.80 15.92  
Sea Level Pressure  
Sea Level Pressure 29.88 in    
Wind  
Wind Speed 7 mph (SE)    
Max Wind Speed 20 mph    
Max Gust Speed 28 mph    
Visibility 9 miles    
Events Rain    
T = Trace of Precipitation, MM = Missing Value Source: NWS Daily Summary

Daily Weather History Graph

Daily Weather History Graph

Search for Another Location

Airport:

Trip Planner

Search our weather history database for the weather conditions in past years. The results will help you decide how hot, cold, wet, or windy it might be!

Date:

Astronomy

Jun. 08, 2014 Rise Set
Actual Time 5:34 AM EDT 8:39 PM EDT
Civil Twilight 5:01 AM EDT 9:12 PM EDT
Nautical Twilight 4:18 AM EDT 9:55 PM EDT
Astronomical Twilight 3:28 AM EDT 10:45 PM EDT
Moon 3:52 PM EDT (6/8) 2:29 AM EDT (6/8)
Length of Visible Light 16h 11m
Length of Day
15h 04m
Waxing Gibbous, 77% of the Moon is Illuminated
Jun 8
Waxing Gibbous
Jun 13
Full
Jun 19
Last Quarter
Jun 27
New
Jul 5
First Quarter

Hourly Weather History & Observations

Time (EDT) Temp. Heat Index Dew Point Humidity Pressure Visibility Wind Dir Wind Speed Gust Speed Precip Events Conditions
12:54 AM 61.0 °F - 53.1 °F 75% 29.95 in 10.0 mi Calm Calm - N/A   Clear
1:54 AM 57.9 °F - 53.1 °F 84% 29.96 in 10.0 mi Calm Calm - N/A   Clear
2:54 AM 57.0 °F - 52.0 °F 83% 29.95 in 10.0 mi North 4.6 mph - N/A   Clear
3:54 AM 55.9 °F - 52.0 °F 87% 29.95 in 10.0 mi Calm Calm - N/A   Clear
4:54 AM 55.0 °F - 51.1 °F 86% 29.95 in 10.0 mi Calm Calm - N/A   Clear
5:54 AM 54.0 °F - 51.1 °F 90% 29.96 in 10.0 mi WNW 3.5 mph - N/A   Clear
6:54 AM 55.9 °F - 52.0 °F 87% 29.96 in 10.0 mi Calm Calm - N/A   Overcast
7:54 AM 59.0 °F - 53.1 °F 81% 29.96 in 10.0 mi Calm Calm - N/A   Overcast
8:54 AM 64.0 °F - 55.9 °F 75% 29.94 in 10.0 mi Variable 3.5 mph - N/A   Clear
9:54 AM 70.0 °F - 57.9 °F 65% 29.94 in 10.0 mi SE 5.8 mph - N/A   Clear
10:54 AM 75.9 °F - 55.0 °F 48% 29.92 in 10.0 mi North - - N/A   Clear
11:54 AM 78.1 °F - 55.9 °F 46% 29.89 in 10.0 mi SSE 15.0 mph 26.5 mph N/A   Clear
12:54 PM 81.0 °F 81.1 °F 57.9 °F 45% 29.88 in 10.0 mi South 15.0 mph 19.6 mph N/A   Clear
1:54 PM 82.0 °F 82.1 °F 59.0 °F 45% 29.85 in 10.0 mi SE 15.0 mph 21.9 mph N/A   Clear
2:54 PM 81.0 °F 81.3 °F 59.0 °F 47% 29.84 in 10.0 mi SSE 11.5 mph 21.9 mph N/A   Clear
3:54 PM 80.1 °F 80.7 °F 59.0 °F 48% 29.83 in 10.0 mi SSE 8.1 mph 21.9 mph N/A   Clear
4:54 PM 79.0 °F - 59.0 °F 50% 29.80 in 10.0 mi ESE 12.7 mph 21.9 mph N/A   Clear
5:54 PM 77.0 °F - 61.0 °F 58% 29.80 in 10.0 mi SE 13.8 mph 20.7 mph 0.00 in Rain Light Rain
6:54 PM 75.9 °F - 61.0 °F 60% 29.81 in 10.0 mi East 3.5 mph - 0.00 in   Overcast
7:43 PM 70.0 °F - 66.0 °F 87% 29.82 in 2.0 mi Calm Calm - 0.07 in Rain Rain
7:54 PM 69.1 °F - 66.0 °F 90% 29.82 in 4.0 mi ENE 4.6 mph - 0.08 in Rain Light Rain
8:54 PM 71.1 °F - 63.0 °F 75% 29.81 in 10.0 mi SSE 17.3 mph 23.0 mph 0.00 in Rain Light Rain
9:06 PM 70.0 °F - 63.0 °F 78% 29.81 in 10.0 mi SSE 17.3 mph 24.2 mph 0.00 in Rain Light Rain
9:54 PM 70.0 °F - 62.1 °F 76% 29.83 in 10.0 mi ESE 8.1 mph - 0.00 in   Overcast
10:54 PM 68.0 °F - 64.0 °F 87% 29.85 in 10.0 mi ENE 4.6 mph - 0.00 in   Overcast
11:54 PM 69.1 °F - 63.0 °F 81% 29.83 in 10.0 mi Variable 4.6 mph - 0.00 in Rain Light Rain